Terug naar catalogus

FENGYUN 1C DEB

ActiefSSO
NORAD 30984·DEBRIS·🇨🇳 China

Gelanceerd May 10, 1999 vanaf Taiyuan Satellite Launch Center

Loading…

Volgende Passages (komende 24 uur)

TLE

VersSource: Space-Track

Epoch: Sep 14, 2026, 07:57 UTC

1 30984U 99025BCA 26257.33185395  .00001477  00000-0  34258-3 0  9992
2 30984  98.2373 293.5775 0123492 240.6546 118.2269 14.51998689991619

Volg FENGYUN 1C DEB in realtime met AllMySat

Download on the App Store